Погода в Кэлэраши

Румыния     46°29′07″N   23°51′20″E
темп.,
°C
ветер,
м/с
пор.,
м/с
влажн.,
%
обл.,
%
осадки,
мм/ч
давл.,
гПа
погр.,
м
6 мая, чт
чт600:00+11зюз2267100 0.0 100618
03:00+10ссз118552 0.5 100932
06:00+7ссз3692100 0.1 1011177
09:00+10юз137889 0.1 1014636
12:00+10юв447570 0.1 1015743
15:00+14вюв446180 0.4 10151128
18:00+14в3361100 0.1 1014975
21:00+9в118198 0.1 101411
7 мая, пт
пт700:00+8з018698 0.0 101410
03:00+8юз2276100 0.0 101336
06:00+8ююз2277100 0.0 101244
09:00+10юв2287100 0.1 101268
12:00+16ююз51061100 0.1 10101565
15:00+15юз4767100 0.1 1009915
18:00+14ююз3871100 0.1 1008280
21:00+10с4793100 1.3 1011346
8 мая, сб
сб800:00+7сз51090100 6.2 1013361
03:00+7ссз2491100 7.8 1015231
06:00+7зюз0192100 0.1 1016103
09:00+8ссв2386100 0.6 1018287
12:00+11ссз465374 0.1 10191596
15:00+12ссз674894 0.3 10181826
18:00+11ссз675439 0.0 10201349
21:00+6сз33751 0.0 102235
9 мая, вс
вс900:00+4зсз227610 0.0 102411
03:00+3з11761 0.0 102510
06:00+2юз1181100 0.0 102610
09:00+8ююв23706 0.0 1027373
12:00+12ююв335415 0.0 10261076
15:00+15юв334393 0.0 10241143
18:00+15юв33450 0.0 1023965
21:00+9ююв11715 0.0 102410
10 мая, пн
пн1000:00+8зюз11730 0.0 102410
03:00+6вюв01784 0.0 102410
06:00+5ююв11840 0.0 102410
09:00+10юв23700 0.0 1024295
12:00+16ююв34580 0.0 1022679
15:00+19ююв34500 0.0 1020893
18:00+20ююв33520 0.0 1019850
21:00+14юз11720 0.0 101911